Location: Unspecified
(41.1637°N, 24.2901°E)
Time: 11:26:18
(UTC+02:00)

ISS - Pass Details

Date: 12 May 2026
Orbit: 414 x 424 km, 51.6° (Epoch: 12 May)

Event Time Altitude Azimuth Distance (km) Brightness Sun altitude
Rises 20:55:32 0° 269° (W) 2,345 0.8 -14.1°
Reaches altitude 10° 20:57:55 10° 284° (WNW) 1,485 0.1 -14.5°
Maximum altitude 21:00:38 23° 339° (NNW) 940 -1.2 -14.9°
Drops below altitude 10° 21:03:22 10° 34° (NE) 1,491 -0.9 -15.2°
Sets 21:05:46 0° 50° (NE) 2,356 0.0 -15.6°
